Regional Weather Roundup
Issued by NWS New Orleans/Baton Rouge, LA

Home | Current Version | Previous Version | Text Only | Print | Product List | Glossary On
Versions: 1 2 3 4 5 6 7 8 9 10 11 12 13 14 15 16 17 18 19 20 21 22 23 24 25 26 27 28 29 30 31 32 33 34 35 36 37 38 39 40 41 42 43 44 45 46 47 48 49 50
000
ASUS44 KLIX 250210
RWRLIX
NEW ORLEANS REGIONAL WEATHER ROUNDUP
NATIONAL WEATHER SERVICE NEW ORLEANS LA
800 PM CST MON NOV 24 2014

NOTE: "FAIR" INDICATES FEW OR NO CLOUDS BELOW 12,000 FEET WITH NO
      SIGNIFICANT WEATHER AND/OR OBSTRUCTIONS TO VISIBILITY.
      SKY/WX - SKY CONDITION AND SIGNIFICANT WEATHER.
      TMP - AIR TEMPERATURE.     DP    - DEWPOINT TEMPERATURE.
      RH  - RELATIVE HUMIDITY.   PRES  - PRESSURE.
      HI  - HEAT INDEX.          WCI   - WIND CHILL INDEX.

*  THESE STATIONS ARE NOT NWS OR FAA STATIONS AND ARE NOT UNDER
   NWS QUALITY CONTROL.

LAZ038-040-048-061>063-065>067-069-250300-
SOUTHEAST LOUISIANA

CITY           SKY/WX    TMP DP  RH WIND       PRES   REMARKS
N.O. AUDUBON   NOT AVBL
N.O. INTL ARPT CLOUDY    59  44  57 N13       30.01R
N.O. LAKEFRONT MOCLDY    59  51  75 N13       30.02R
N.O. DOWNTOWN*   N/A     61  43  51 N7        30.02R
SLIDELL        MOCLDY    55  45  68 N3        30.01R
BATON ROUGE    PTCLDY    52  36  54 CALM      30.04R
BOOTHVILLE     CLOUDY    62  54  74 N10       29.98R
BELLE CHASSE   MOCLDY    61  44  53 N6        30.00R
BOGALUSA*        N/A     53  43  68 N3        30.03R
NEW ROADS*       N/A     49  40  73 CALM      30.05R
GONZALES*        N/A     55  36  47 N5        30.03R
HAMMOND*       MOCLDY    54  37  54 N6        30.04R
HOUMA*         MOCLDY    57  47  67 N9        30.01R
PORT FOURCHON* MOCLDY    64  50  59 N15       30.03R

$$

MSZ070-080>082-250300-
SOUTHERN MISSISSIPPI

CITY           SKY/WX    TMP DP  RH WIND       PRES   REMARKS
MCCOMB         PTCLDY    52  35  52 N6        30.04R
GULFPORT       MOCLDY    60  46  59 N8        29.99R
BILOXI         MOCLDY    60  48  65 N9        29.99R
PASCAGOULA     MOCLDY    60  47  61 N9        29.98R
STENNIS ARPT*  CLEAR     55  43  62 N5        30.01R

$$

COASTAL OBSERVATIONS
LAKE AND NEARSHORE STATIONS

STATION/POSITION TIME  TEMP    WIND        PRES    WAVE
                       AIR SEA DIR/SP/G            HT/PER
                 (UTC) (F)     (DEG/KT/KT) (MB)    (FT/S)
PASCAGOULA       0200   62     350/ 10/ 15 1014.3
WAVELAND YACHT   0200   60     360/ 10/ 12 1015.1
GRAND ISLE       0200   64 66  360/ 13/ 17 1016.0
SOUTHWEST PASS   0200   66                 1015.1
NEW CANAL        0200   59 57  350/ 12/ 14 1016.6
SHELL BEACH      0200   61 56  340/ 13/ 14 1015.5

OFFSHORE STATIONS

STATION/POSITION TIME  TEMP    WIND        PRES    WAVE
                       AIR SEA DIR/SP/G            HT/PER
                 (UTC) (F)     (DEG/KT/KT) (MB)    (FT/S)
64 S DAUPHIN ISL 0134   70 71  330/ 14/ 17 1014.1    4/ 7

$$



USA.gov is the U.S. government's official web portal to all federal, state and local government web resources and services.